Location: Wien
(48.2082°N, 16.3738°E)
Time: 00:11:34
(UTC+02:00)

UNISAT 6 - Visible Passes

Search period start: 25 April 2024 00:00
Search period end: 05 May 2024 00:00
Orbit: 593 x 669 km, 97.7° (Epoch: 24 April)

Date Brightness Start Highest point End Pass type
(mag) Time Alt. Az. Time Alt. Az. Time Alt. Az.
25 Apr ? 03:31:37 10° ESE 03:34:38 19° ENE 03:37:37 10° NNE visible
25 Apr ? 05:06:22 10° S 05:10:39 54° W 05:14:52 10° NNW visible
26 Apr ? 03:51:31 10° SE 03:55:11 28° ENE 03:58:50 10° N visible
27 Apr ? 04:11:43 10° SE 04:15:48 43° ENE 04:19:50 10° N visible
28 Apr ? 04:32:09 10° SSE 04:36:26 69° ENE 04:40:41 10° N visible
29 Apr ? 03:18:58 10° E 03:21:17 14° ENE 03:23:34 10° NNE visible
29 Apr ? 04:52:48 10° S 04:57:07 73° WSW 05:01:23 10° NNW visible
30 Apr ? 03:38:29 10° ESE 03:41:44 21° ENE 03:44:57 10° NNE visible
01 May ? 03:58:25 10° SE 04:02:13 32° ENE 04:06:00 10° N visible
02 May ? 04:18:37 10° SSE 04:22:45 50° ENE 04:26:52 10° N visible
03 May ? 03:06:36 10° ENE 03:07:40 11° ENE 03:08:45 10° NE visible
03 May ? 04:39:04 10° SSE 04:43:20 82° ENE 04:47:34 10° NNW visible
04 May ? 03:25:22 10° E 03:28:01 16° ENE 03:30:39 10° NNE visible
